[[{"header":{"parameterUnit":"m.s-1","parameterCategory":1,"la1":30.2991,"la2":30.254,"lo1":-89.0895,"lo2":-89.0444,"dy":0.0017,"dx":0.0017,"nx":28,"ny":28,"refTime":"2025-02-03T03:00:00:Z","depth":0,"parameterNumber":2,"parameterNumberName":"U-component_of_WINDS"},"data":[0,0,0,0,0,0,0,0,0,0,0,0,0,0,0,0,0,0,0,0,0,0,0,0,0,0,0,0,0,0,0,0,0,0,0,0,0,0,0,0,0,0,0,0,0,0,0,0,0,0,0,0,0,0,0,0,0,0,-0.9525,-0.9524,0,-0.9467,-0.9466,-0.9466,-0.943,-0.943,-0.943,-0.943,-0.9367,-0.9366,-0.9364,0,0,0,0,0,0,0,0,0,0,0,0,0,-0.9602,-0.9601,-0.9525,-0.9524,-0.9523,-0.9467,-0.9466,-0.9465,-0.943,-0.943,-0.943,-0.943,-0.9368,-0.9366,-0.9364,0,0,0,0,0,0,0,0,0,0,0,0,0,-0.9559,-0.96,-0.9525,-0.9499,-0.9496,-0.9467,-0.9466,-0.9465,-0.9431,-0.943,-0.943,-0.943,-0.9369,-0.9366,-0.9364,-0.9355,0,0,-0.9357,-0.9356,0,0,0,0,0,0,0,0,-0.9561,-0.9556,-0.9504,-0.9501,-0.9498,-0.9456,-0.947,-0.9428,-0.9431,-0.9455,-0.943,-0.943,-0.9397,-0.9392,-0.9382,-0.9352,-0.9349,-0.9357,-0.9356,-0.9355,-0.9354,0,0,0,0,0,0,0,-0.9564,-0.9558,-0.9502,-0.9503,-0.9499,-0.949,-0.9483,-0.9462,-0.9428,-0.9453,-0.9451,-0.9444,-0.9395,-0.9384,-0.938,-0.9349,-0.9357,-0.9355,-0.9354,-0.9353,-0.9307,-0.9308,0,0,0,0,0,0,-0.9572,-0.9561,-0.9504,-0.95,-0.953,-0.9488,-0.9481,-0.9469,-0.9428,-0.9422,-0.9445,-0.9443,-0.9388,-0.9383,-0.9378,-0.9364,-0.9355,-0.9352,-0.9351,-0.9307,-0.9307,-0.9308,0,0,0,0,0,0,-0.9573,-0.9567,-0.9506,-0.953,-0.9521,-0.9487,-0.9474,-0.9468,-0.9457,-0.9422,-0.9415,-0.944,-0.9388,-0.9381,-0.9361,-0.9361,-0.9351,-0.9349,-0.9307,-0.9307,-0.9308,-0.9336,0,0,0,0,0,0,-0.9576,-0.9568,-0.9565,-0.953,-0.952,-0.9491,-0.9474,-0.9467,-0.9454,-0.9451,-0.9416,-0.9409,-0.9387,-0.9365,-0.9359,-0.9358,-0.9348,-0.9307,-0.9307,-0.9307,-0.9335,-0.9337,-0.9339,0,0,0,0,0,-0.9579,-0.9575,-0.9565,-0.9558,-0.9516,-0.9491,-0.9486,-0.9461,-0.9454,-0.945,-0.9427,-0.9411,-0.9362,-0.9363,-0.9356,-0.9354,-0.9307,-0.9307,-0.9307,-0.9334,-0.9337,-0.9339,0,0,0,0,0,0,-0.9609,-0.957,-0.9558,-0.9543,-0.9521,-0.9486,-0.948,-0.9465,-0.9443,-0.9442,-0.9411,-0.9403,-0.9386,-0.9368,-0.9369,-0.9343,-0.9332,-0.9331,-0.9355,-0.9358,-0.936,-0.9364,-0.9346,0,0,0,0,0,-0.9615,-0.9599,-0.9565,-0.9555,-0.9544,-0.9514,-0.9503,-0.9486,-0.9461,-0.9451,-0.9427,-0.9403,-0.9382,-0.9369,-0.9348,-0.9333,-0.9324,-0.9328,-0.933,-0.9332,-0.9331,-0.9321,-0.9322,-0.9309,-0.9309,-0.9309,0,0,-0.9625,-0.9601,-0.9593,-0.956,-0.9541,-0.9525,-0.9507,-0.949,-0.9477,-0.9448,-0.9428,-0.9409,-0.938,-0.9363,-0.9353,-0.9347,-0.9333,-0.9333,-0.9334,-0.9332,-0.9321,-0.9323,-0.9324,-0.9309,-0.9309,-0.9309,0,0,-0.9635,-0.9616,-0.9605,-0.9586,-0.9558,-0.9538,-0.9536,-0.9502,-0.9489,-0.9469,-0.9446,-0.943,-0.9395,-0.9375,-0.9361,-0.9363,-0.9346,-0.9357,-0.9368,-0.9358,-0.9359,-0.936,-0.936,-0.9361,-0.9357,-0.9357,-0.9357,0,-0.9651,-0.9626,-0.9601,-0.9586,-0.9572,-0.9546,-0.9534,-0.9517,-0.9483,-0.9473,-0.9467,-0.9422,-0.9401,-0.9378,-0.9378,-0.9368,-0.9363,-0.9361,-0.9361,-0.9362,-0.9362,-0.9362,-0.9362,-0.9358,-0.9358,-0.9358,-0.9358,0,-0.9647,-0.963,-0.9624,-0.9593,-0.9578,-0.9565,-0.9537,-0.9524,-0.9509,-0.9489,-0.9468,-0.9441,-0.9414,-0.9408,-0.9392,-0.9382,-0.9379,-0.9368,-0.9356,-0.9365,-0.9364,-0.9364,-0.936,-0.936,-0.9359,-0.9359,0,0,-0.9674,-0.9629,-0.9628,-0.9613,-0.958,-0.9566,-0.9551,-0.9525,-0.9515,-0.9492,-0.9478,-0.9449,-0.9438,-0.9422,-0.9403,-0.9395,-0.9397,-0.9384,-0.9383,-0.9387,-0.9384,-0.9392,-0.9392,-0.9386,-0.9386,-0.9386,-0.9386,0,-0.9679,-0.9652,-0.9629,-0.9609,-0.9593,-0.9568,-0.9555,-0.9532,-0.9513,-0.9496,-0.9474,-0.9454,-0.9442,-0.9432,-0.9423,-0.9399,-0.9396,-0.9399,-0.9372,-0.9371,-0.9379,-0.9392,-0.9401,-0.9402,-0.9386,-0.9385,-0.9385,0,-0.9681,-0.966,-0.9639,-0.9607,-0.9599,-0.9588,-0.9563,-0.9547,-0.952,-0.9507,-0.9489,-0.9469,-0.9451,-0.9442,-0.9416,-0.9418,-0.9406,-0.9392,-0.9392,-0.9387,-0.9378,-0.9387,-0.9402,-0.9402,-0.9385,-0.9385,-0.9385,0,-0.9702,-0.9669,-0.9652,-0.964,-0.9602,-0.9595,-0.9579,-0.9552,-0.9538,-0.9515,-0.9506,-0.9481,-0.9467,-0.9448,-0.9422,-0.9418,-0.9398,-0.9387,-0.9385,-0.9386,-0.9382,-0.9382,-0.9393,-0.9375,-0.9375,-0.9375,-0.9375,0,-0.9709,-0.9697,-0.9661,-0.965,-0.9636,-0.9609,-0.9595,-0.9577,-0.9553,-0.9538,-0.9515,-0.9501,-0.9468,-0.9449,-0.9429,-0.941,-0.9404,-0.9391,-0.9386,-0.9393,-0.9395,-0.9384,-0.9383,-0.9375,-0.9375,-0.9375,-0.9375,0,-0.973,-0.9705,-0.9685,-0.9652,-0.9643,-0.9634,-0.9604,-0.9593,-0.9573,-0.9553,-0.9547,-0.9516,-0.9493,-0.9465,-0.9433,-0.9419,-0.9401,-0.9394,-0.9411,-0.9407,-0.9407,-0.9407,-0.9411,-0.941,-0.9393,-0.9393,-0.9394,0,-0.9736,-0.9726,-0.9692,-0.968,-0.9665,-0.9647,-0.9633,-0.9606,-0.9592,-0.9561,-0.9553,-0.9528,-0.9507,-0.9471,-0.9444,-0.942,-0.941,-0.9414,-0.9406,-0.9414,-0.9409,-0.941,-0.9409,-0.9415,-0.9416,-0.9416,-0.9416,0,-0.9749,-0.9737,-0.9718,-0.9695,-0.9679,-0.9659,-0.9637,-0.9629,-0.9597,-0.9582,-0.9559,-0.9543,-0.9511,-0.9486,-0.9458,-0.944,-0.9422,-0.9419,-0.9417,-0.9424,-0.9434,-0.9427,-0.9415,-0.9419,-0.9418,-0.9418,-0.9418,-0.9418,-0.9762,-0.9752,-0.9726,-0.9705,-0.9687,-0.9668,-0.9655,-0.9634,-0.9614,-0.9586,-0.9571,-0.9548,-0.9521,-0.9481,-0.9464,-0.9445,-0.9438,-0.9436,-0.9435,-0.9435,-0.9437,-0.9438,-0.9439,-0.9439,-0.9439,-0.9439,-0.9439,0,-0.9773,-0.9755,-0.9736,-0.9708,-0.9691,-0.9678,-0.9654,-0.964,-0.9621,-0.9597,-0.9577,-0.955,-0.9526,-0.9498,-0.9472,-0.9462,-0.9453,-0.9456,-0.9456,-0.9452,-0.9444,-0.9448,-0.9463,-0.9463,-0.9463,-0.9463,-0.9463,-0.9463,-0.9777,-0.9759,-0.9744,-0.9717,-0.9699,-0.9677,-0.9664,-0.9646,-0.9627,-0.9598,-0.9579,-0.9561,-0.9535,-0.9506,-0.9484,-0.9476,-0.9467,-0.9472,-0.9461,-0.9454,-0.9452,-0.945,-0.9454,-0.947,-0.947,-0.947,-0.947,-0.947]},{"header":{"parameterUnit":"m.s-1","parameterCategory":1,"la1":30.2991,"la2":30.254,"lo1":-89.0895,"lo2":-89.0444,"dy":0.0017,"dx":0.0017,"nx":28,"ny":28,"refTime":"2025-02-03T03:00:00:Z","depth":0,"parameterNumber":3,"parameterNumberName":"V-component_of_WINDS"},"data":[0,0,0,0,0,0,0,0,0,0,0,0,0,0,0,0,0,0,0,0,0,0,0,0,0,0,0,0,0,0,0,0,0,0,0,0,0,0,0,0,0,0,0,0,0,0,0,0,0,0,0,0,0,0,0,0,0,0,2.0986,2.0986,0,2.0984,2.0984,2.0984,2.097,2.0969,2.0969,2.0969,2.0965,2.0965,2.0965,0,0,0,0,0,0,0,0,0,0,0,0,0,2.0977,2.0977,2.0986,2.0986,2.0986,2.0984,2.0984,2.0984,2.097,2.0969,2.0969,2.0968,2.0965,2.0965,2.0965,0,0,0,0,0,0,0,0,0,0,0,0,0,2.0978,2.0977,2.0986,2.0978,2.0978,2.0984,2.0984,2.0984,2.097,2.0969,2.0969,2.0968,2.0965,2.0965,2.0965,2.0977,0,0,2.0966,2.0966,0,0,0,0,0,0,0,0,2.0978,2.0979,2.098,2.0979,2.0978,2.0976,2.0979,2.0982,2.097,2.0973,2.0969,2.0968,2.0969,2.0969,2.097,2.0977,2.0977,2.0966,2.0966,2.0967,2.0967,0,0,0,0,0,0,0,2.0978,2.0979,2.0985,2.098,2.0979,2.0975,2.0975,2.098,2.0974,2.0972,2.0971,2.0971,2.0968,2.0969,2.0969,2.0977,2.0966,2.0967,2.0967,2.0967,2.0997,2.0997,0,0,0,0,0,0,2.0979,2.0979,2.0985,2.0985,2.0977,2.0976,2.0975,2.0977,2.0974,2.0973,2.0972,2.0971,2.0969,2.0969,2.0969,2.0985,2.0967,2.0967,2.0967,2.0996,2.0997,2.0998,0,0,0,0,0,0,2.0979,2.098,2.0985,2.0982,2.0982,2.0977,2.0979,2.0978,2.0979,2.0973,2.0972,2.0974,2.0969,2.0969,2.0976,2.0984,2.0967,2.0967,2.0996,2.0996,2.0997,2.1015,0,0,0,0,0,0,2.0979,2.098,2.0985,2.0982,2.0982,2.0992,2.0979,2.0978,2.0979,2.0978,2.0975,2.0974,2.0968,2.0976,2.0976,2.0984,2.0968,2.0995,2.0996,2.0997,2.1014,2.1016,2.1019,0,0,0,0,0,2.0979,2.0989,2.0985,2.0986,2.0988,2.0992,2.0993,2.0987,2.098,2.0985,2.0982,2.0974,2.0983,2.0977,2.0977,2.0985,2.0994,2.0996,2.0997,2.1012,2.1016,2.1019,0,0,0,0,0,0,2.0991,2.0988,2.0984,2.0993,2.0993,2.099,2.0996,2.099,2.0992,2.099,2.0982,2.0982,2.0991,2.0989,2.0981,2.0998,2.0988,2.0989,2.0999,2.1002,2.1005,2.1005,2.0968,0,0,0,0,0,2.0995,2.1,2.0997,2.1005,2.1006,2.1001,2.1003,2.0998,2.0998,2.0998,2.0995,2.0995,2.0998,2.1,2.1002,2.1013,2.1013,2.1019,2.1022,2.1024,2.1026,2.1033,2.1036,2.1002,2.1002,2.1002,0,0,2.1003,2.1002,2.1005,2.1008,2.1007,2.1013,2.1001,2.1006,2.101,2.0998,2.1006,2.1004,2.1003,2.1013,2.1017,2.1012,2.1035,2.1026,2.1028,2.1028,2.1035,2.1038,2.1041,2.1003,2.1003,2.1003,0,0,2.1021,2.102,2.1028,2.1029,2.1029,2.1026,2.1028,2.1026,2.1025,2.1032,2.1024,2.1028,2.1033,2.1034,2.1034,2.1055,2.1048,2.1056,2.1069,2.1076,2.1079,2.1081,2.109,2.1093,2.1057,2.1057,2.1057,0,2.1031,2.1038,2.1033,2.1039,2.1041,2.1032,2.1041,2.1041,2.1042,2.1043,2.1037,2.1045,2.1044,2.1054,2.106,2.106,2.1063,2.1056,2.1079,2.1081,2.1084,2.1092,2.1095,2.1058,2.1058,2.1058,2.1058,0,2.1051,2.1057,2.1063,2.1066,2.1068,2.1075,2.1071,2.1074,2.107,2.1068,2.1077,2.1075,2.1078,2.108,2.1075,2.1091,2.1088,2.1081,2.107,2.1088,2.1095,2.1098,2.106,2.1059,2.1059,2.1059,0,0,2.1075,2.1076,2.1079,2.1081,2.1081,2.1085,2.1093,2.1096,2.11,2.1101,2.1108,2.1113,2.1108,2.1109,2.1104,2.1111,2.1129,2.1103,2.1103,2.1109,2.1147,2.1153,2.1157,2.1124,2.1125,2.1125,2.1148,0,2.1093,2.1107,2.1103,2.1116,2.1122,2.1115,2.1121,2.1123,2.1121,2.1126,2.1124,2.1129,2.112,2.1121,2.1127,2.1125,2.1136,2.1123,2.1131,2.1131,2.1132,2.116,2.1166,2.1187,2.115,2.1151,2.1151,0,2.1115,2.1119,2.1134,2.1135,2.1137,2.1144,2.1148,2.1152,2.1154,2.1153,2.1155,2.115,2.1158,2.1147,2.1159,2.115,2.1153,2.1153,2.1154,2.1154,2.1143,2.1163,2.1194,2.1197,2.1155,2.1155,2.1155,0,2.1133,2.1142,2.1152,2.1154,2.1155,2.116,2.1161,2.1162,2.1165,2.1169,2.1171,2.1175,2.1178,2.1181,2.1178,2.117,2.119,2.1179,2.119,2.119,2.1194,2.1194,2.1227,2.1195,2.1195,2.1195,2.1195,0,2.1154,2.1164,2.1161,2.1167,2.1178,2.1173,2.1184,2.1184,2.1186,2.1192,2.1185,2.1192,2.1186,2.1192,2.1189,2.12,2.1201,2.12,2.12,2.1201,2.1202,2.1203,2.1202,2.1196,2.1196,2.1196,2.1195,0,2.1176,2.1174,2.1185,2.1186,2.1187,2.1195,2.1196,2.1202,2.1201,2.121,2.1211,2.1209,2.1216,2.1213,2.122,2.1218,2.1232,2.1229,2.1232,2.1231,2.1243,2.1242,2.1279,2.1284,2.1248,2.1248,2.1249,0,2.1189,2.1197,2.1199,2.1204,2.1206,2.1212,2.1216,2.1213,2.1217,2.1221,2.1227,2.1233,2.1238,2.125,2.1249,2.1254,2.1252,2.1264,2.1252,2.1255,2.1253,2.1253,2.1255,2.1267,2.1267,2.1267,2.1268,0,2.1214,2.1213,2.1219,2.1226,2.1231,2.1235,2.1239,2.1243,2.124,2.1245,2.1253,2.1257,2.1265,2.1272,2.1277,2.1278,2.1273,2.1271,2.1275,2.1277,2.1279,2.1279,2.1239,2.1271,2.127,2.127,2.127,2.127,2.1233,2.124,2.1243,2.1251,2.1254,2.1258,2.1265,2.1265,2.1271,2.1278,2.1276,2.1285,2.1288,2.1295,2.1297,2.1304,2.1299,2.1303,2.1304,2.1306,2.1308,2.1277,2.1305,2.1305,2.1305,2.1305,2.1305,0,2.1258,2.1261,2.1268,2.1274,2.128,2.1276,2.128,2.1286,2.1294,2.1298,2.1304,2.1313,2.1321,2.1321,2.1328,2.1334,2.1332,2.1336,2.1336,2.1336,2.1311,2.1309,2.1338,2.1338,2.1338,2.1338,2.1338,2.1338,2.1272,2.1284,2.1284,2.1298,2.1301,2.131,2.1313,2.1318,2.1321,2.1332,2.1339,2.1339,2.1342,2.135,2.1357,2.1357,2.136,2.1365,2.1364,2.1341,2.1338,2.1335,2.1332,2.1366,2.1366,2.1389,2.1389,2.1389]}]]